Terminal Aerodrome Forecast
Issued by NWS

Home | Current Version | Previous Version | Text Only | Print | Product List | Glossary On
Versions: 1 2 3 4 5 6 7 8 9 10 11 12 13 14 15 16 17 18 19 20 21 22 23 24 25 26 27 28 29 30 31 32 33 34 35 36 37 38 39 40 41 42 43 44 45 46 47 48 49 50
000
FTAK31 PANC 271140
TAFACD
TAF
PACD 271140Z 2712/2812 27015KT P6SM -RA SCT006 OVC012
     FM271500 27015G25KT 3SM RA BR BKN004 OVC012
     FM271900 27018G25KT 5SM -RA BR OVC012
     FM280000 28018G30KT 5SM -RA OVC012
     FM280600 33025G35KT P6SM VCSH OVC012=

USA.gov is the U.S. government's official web portal to all federal, state and local government web resources and services.